Flag for South Africa Weather past 2 weeks in Bloemfontein, South Africa

Now
54 °F

Passing clouds.


Feels Like: 52 °F
Forecast: 33 / 67 °F
Wind: 6 mph from North

Location: Bloemfontein Airport

Current Time: Jul 22, 2014 at 8:37:42 PM

Latest Report: Jul 22, 2014 at 7:00 PM


Visibility: N/A

Pressure: 30.24 "Hg

Humidity: 35%

Dew point: 27 °F

Location of BloemfonteinLocation

Historic Weather in Bloemfontein — Graph

°F

Bloemfontein temperature yesterday

Maximum temperature yesterday: 64 °F (at 2:00 PM)
Minimum temperature yesterday: 23 °F (at 6:00 AM)
Average temperature yesterday: 41 °F

Past Weeks' High & Low Weather Summary

 TemperatureHumidityPressure
High68 °F (Jul 16, 3:00 PM)86% (Jul 13, 2:00 AM)30.57 "Hg (Jul 13, 2:00 AM)
Low18 °F (Jul 10, 4:00 AM)8% (Jul 14, 5:00 PM)30.07 "Hg (Jul 17, 4:00 PM)
Average41 °F46%30.35 "Hg
* Reported Jul 7 6:00 PM — Jul 22 6:00 PM, Bloemfontein, Weather by CustomWeather, © 2014

Note: Actual official high and low records may vary slightly from our data, if they occured in-between our weather recording intervals... More about our weather records

Advertising

Bloemfontein weather history for previous 24 hours

 ConditionsComfort  
Time TempWeatherWind HumidityBarometerVisibility
6:00 PM
Jul 22
59 °FClear.7 mph31%30.24 "Hg10 mi
5:00 PM66 °FClear.8 mph22%30.24 "Hg10 mi
4:00 PM68 °FPassing clouds.9 mph24%30.24 "HgN/A
3:00 PM66 °FPassing clouds.12 mph28%30.27 "HgN/A
2:00 PM66 °FSunny.8 mph26%30.30 "Hg10 mi
1:00 PM63 °FPassing clouds.10 mph34%30.30 "HgN/A
12:00 PM61 °FPassing clouds.10 mph34%30.36 "HgN/A
11:00 AM57 °FPassing clouds.7 mph33%30.39 "HgN/A
10:00 AM50 °FSunny.5 mph30%30.42 "Hg10 mi
9:00 AM43 °FSunny.5 mph31%30.39 "Hg10 mi
8:00 AM34 °FSunny.No wind44%30.42 "Hg10 mi
7:00 AM27 °FSunny.8 mph54%30.39 "Hg10 mi
6:00 AM28 °FClear.No wind51%30.36 "Hg10 mi
5:00 AM27 °FClear.3 mph54%30.36 "Hg10 mi
4:00 AM28 °FChilly.1 mph51%30.36 "HgN/A
3:00 AM27 °FChilly.2 mph54%30.36 "HgN/A
2:00 AM28 °FChilly.1 mph51%30.39 "HgN/A
1:00 AM28 °FChilly.1 mph51%30.39 "Hg5 mi
12:00 AM32 °FChilly.1 mph47%30.39 "HgN/A
11:00 PM
Jul 21
32 °FChilly.3 mph44%30.42 "HgN/A
10:00 PM36 °FChilly.2 mph35%30.42 "HgN/A
9:00 PM37 °FChilly.2 mph30%30.39 "HgN/A
8:00 PM41 °FClear.No wind24%30.42 "Hg10 mi
Weather by CustomWeather, © 2014

See weather overviewHow to use our weather pages